Hourly Data Report for December 03, 2017

CARBERRY CS
MANITOBA

49°54'20.900" N
99°21'26.800" W
383.50 m
5010547
71170
WZE

Download Data

Hourly Data (December 2017)
Hourly Data Report for December 3, 2017
TIME
LST
Temp Definition
°C
Dew Point Definition
°C
Rel Hum Definition
%
Precip. Amount Definition
mm

Wind Dir Definition
10's deg

Wind Spd Definition
km/h
Visibility Definition
km
Stn Press Definition
kPa
Hmdx Definition


Wind Chill Definition


Weather Definition


00:00 -2.6 -5.0 84 0.0 24 10   96.47   -6 LegendNANA
01:00 -2.9 -5.0 85 0.0 26 15   96.49   -8 LegendNANA
02:00 -4.9 -6.8 87 0.0 26 10   96.55   -9 LegendNANA
03:00 -6.4 -7.6 91 0.0 25 10   96.58   -11 LegendNANA
04:00 -6.7 -7.9 91 0.0 26 9   96.60   -11 LegendNANA
05:00 -7.2 -8.8 88 0.0 24 9   96.65   -12 LegendNANA
06:00 -7.8 -9.3 89 0.0 22 8   96.67   -12 LegendNANA
07:00 -9.4 -10.6 91 0.0 29 3   96.67   -11 LegendNANA
08:00 -8.6 -10.1 89 0.0 25 3   96.71   -10 LegendNANA
09:00 -8.4 -9.8 90 0.0 36 4   96.66   -11 LegendNANA
10:00 -7.3 -8.9 88 0.0 4 4   96.69   -9 LegendNANA
11:00 -4.2 -6.3 86 0.0 4 10   96.64   -8 LegendNANA
12:00 -2.5 -5.3 81 0.0 8 8   96.60   -6 LegendNANA
13:00 -1.6 -4.6 80 0.0 8 3   96.59   -3 LegendNANA
14:00 -1.6 -4.5 80 0.0 5 8   96.51   -5 LegendNANA
15:00 -1.7 -4.7 80 0.0 6 9   96.45   -5 LegendNANA
16:00 -2.0 -4.4 84 0.0 5 7   96.46   -5 LegendNANA
17:00 -2.4 -4.3 87 0.0 5 15   96.38   -7 LegendNANA
18:00 -2.6 -4.2 89 0.0 5 14   96.32   -7 LegendNANA
19:00 -2.9 -4.4 90 0.0 4 13   96.32   -8 LegendNANA
20:00 -3.5 -5.0 89 0.0 5 11   96.30   -8 LegendNANA
21:00 -3.9 -5.4 89 0.0 3 14   96.30   -9 LegendNANA
22:00 -4.1 -5.4 90 0.0 4 14   96.24   -9 LegendNANA
23:00 -4.4 -5.5 92 0.0 5 12   96.19   -9 LegendNANA

Notes on Data Quality.

Legend

  • E = Estimated
  • M = Missing
  • NA = Not Available*
  • [empty] = Indicates an unobserved value
Date modified: